Location: Tenerife
(28.2947°N, 16.5650°W)
Time: 17:43:04
(UTC+01:00)

Tiangong 2 - Visible Passes

Search period start: 18 July 2018 00:00
Search period end: 28 July 2018 00:00
Orbit: 386 x 394 km, 42.8° (Epoch: 18 July)

Date Brightness Start Highest point End Pass type
(mag) Time Alt. Az. Time Alt. Az. Time Alt. Az.
20 Jul 4.4 23:38:39 10° NNW 23:39:05 12° N 23:39:05 12° N visible
21 Jul 3.9 22:41:54 10° N 22:42:45 11° NNE 22:43:38 10° NE visible
22 Jul 3.7 23:19:33 10° NNW 23:20:51 19° NNW 23:20:51 19° NNW visible
23 Jul 3.3 22:22:17 10° NNW 22:24:29 17° NNE 22:25:37 15° NE visible
24 Jul 3.8 21:25:21 10° N 21:26:32 12° NNE 21:27:42 10° NE visible
24 Jul 2.7 23:00:42 10° NW 23:02:44 35° NNW 23:02:44 35° NNW visible
25 Jul 2.4 22:03:11 10° NW 22:06:03 31° NNE 22:07:35 20° ENE visible
26 Jul 1.8 22:42:07 10° WNW 22:44:49 46° WSW 22:44:49 46° WSW visible
27 Jul 1.1 21:44:20 10° NW 21:47:30 71° NE 21:49:47 17° ESE visible
